Date,TemperatureHighF,TemperatureAvgF,TemperatureLowF,DewpointHighF,DewpointAvgF,DewpointLowF,HumidityHigh,HumidityAvg,HumidityLow,PressureMaxIn,PressureMinIn,WindSpeedMaxMPH,WindSpeedAvgMPH,GustSpeedMaxMPH,PrecipitationSumIn
2013-1-1,31.6,24.2,17.5,56.0,32.6,12.4,92,46,77,30.02,29.81,21,6,24,0.00
2013-1-2,25.6,19.0,8.9,46.7,17.9,2.3,91,71,70,30.23,29.97,26,7,26,0.00
2013-1-3,30.5,22.0,8.9,34.9,22.5,2.7,91,74,75,30.22,29.99,18,7,21,0.00
2013-1-4,34.5,31.9,28.9,28.0,25.2,21.9,90,76,65,30.00,29.87,28,10,30,0.00
2013-1-5,33.6,31.9,25.7,28.1,26.1,20.8,87,79,68,30.28,29.99,22,8,27,0.00
2013-1-6,38.4,34.8,31.0,33.4,29.4,25.1,92,81,75,30.09,29.88,19,11,20,0.04
2013-1-7,35.0,28.9,24.5,32.9,25.1,21.9,93,86,73,30.39,30.02,22,6,24,0.00
2013-1-8,39.2,33.3,27.8,27.6,24.9,21.6,80,71,55,30.33,30.20,29,9,30,0.00
2013-1-9,47.0,39.8,34.2,37.2,30.2,24.2,78,68,58,30.31,29.96,35,12,35,0.01
2013-1-10,39.2,35.3,29.7,30.8,28.8,26.0,87,77,69,30.56,30.27,23,5,27,0.00
2013-1-11,42.5,39.3,33.4,39.0,31.4,24.0,89,74,55,30.47,29.94,35,15,38,0.11
2013-1-12,50.7,46.1,41.9,47.3,43.1,38.6,93,90,85,30.04,29.99,21,10,24,0.00
2013-1-13,57.2,51.5,44.9,51.8,47.9,42.8,96,88,80,30.02,29.80,25,10,32,0.00
2013-1-14,54.4,38.9,29.9,50.0,33.5,23.3,95,81,68,30.35,29.72,24,8,27,0.02
2013-1-15,32.0,29.6,28.1,24.0,23.0,21.4,82,76,67,30.38,30.19,11,3,12,0.00
2013-1-16,35.5,32.4,29.2,54.3,29.4,22.5,92,80,74,30.19,29.78,22,8,24,0.01
2013-1-17,35.6,27.1,19.0,44.0,24.4,13.6,95,70,68,30.16,29.86,24,6,25,0.00
2013-1-18,31.4,20.3,9.6,37.7,17.1,6.4,92,67,59,30.41,30.11,32,10,37,0.00
2013-1-19,47.1,40.8,31.4,34.8,26.7,18.5,70,57,49,30.12,29.64,30,16,33,0.00
2013-1-20,46.0,21.7,38.6,99.9,66.5,28.7,86,28,52,29.65,29.45,28,-507,34,0.01
2013-1-21,-200.0,0.0,200.0,99.9,99.9,99.9,0,0,100,0.00,40.00,0,-999,0,0.00
2013-1-22,-200.0,0.0,200.0,99.9,99.9,99.9,0,0,100,0.00,40.00,0,-999,0,0.00
2013-1-23,-200.0,0.0,200.0,99.9,99.9,99.9,0,0,100,0.00,40.00,0,-999,0,0.00
2013-1-24,-200.0,0.0,200.0,99.9,99.9,99.9,0,0,100,0.00,40.00,0,-999,0,0.00
2013-1-25,-200.0,0.0,200.0,99.9,99.9,99.9,0,0,100,0.00,40.00,0,-999,0,0.00
2013-1-26,-200.0,0.0,200.0,99.9,99.9,99.9,0,0,100,0.00,40.00,0,-999,0,0.00
2013-1-27,-200.0,0.0,200.0,99.9,99.9,99.9,0,0,100,0.00,40.00,0,-999,0,0.00
2013-1-28,-200.0,0.0,200.0,99.9,99.9,99.9,0,0,100,0.00,40.00,0,-999,0,0.00
2013-1-29,-200.0,0.0,200.0,99.9,99.9,99.9,0,0,100,0.00,40.00,0,-999,0,0.00
2013-1-30,-200.0,0.0,200.0,99.9,99.9,99.9,0,0,100,0.00,40.00,0,-999,0,0.00
2013-1-31,-200.0,0.0,200.0,99.9,99.9,99.9,0,0,100,0.00,40.00,0,-999,0,0.00
2013-2-1,-200.0,0.0,200.0,99.9,99.9,99.9,0,0,100,0.00,0.00,0,-999,0,0.00
2013-2-2,-200.0,0.0,200.0,99.9,99.9,99.9,0,0,100,0.00,0.00,0,-999,0,0.00
2013-2-3,-200.0,0.0,200.0,99.9,99.9,99.9,0,0,100,0.00,40.00,0,-999,0,0.00
2013-2-4,-200.0,0.0,200.0,99.9,99.9,99.9,0,0,100,0.00,40.00,0,-999,0,0.00
2013-2-5,-200.0,0.0,200.0,99.9,99.9,99.9,0,0,100,0.00,40.00,0,-999,0,0.00
2013-2-6,-200.0,0.0,200.0,99.9,99.9,99.9,0,0,100,0.00,40.00,0,-999,0,0.00
2013-2-7,-200.0,0.0,200.0,99.9,99.9,99.9,0,0,100,0.00,40.00,0,-999,0,0.00
2013-2-8,-200.0,0.0,200.0,99.9,99.9,99.9,0,0,100,0.00,40.00,0,-999,0,0.00
2013-2-9,-200.0,0.0,200.0,99.9,99.9,99.9,0,0,100,0.00,40.00,0,-999,0,0.00
2013-2-10,-200.0,0.0,200.0,99.9,99.9,99.9,0,0,100,0.00,40.00,0,-999,0,0.00
2013-2-11,-200.0,0.0,200.0,99.9,99.9,99.9,0,0,100,0.00,40.00,0,-999,0,0.00
2013-2-12,-200.0,0.0,200.0,99.9,99.9,99.9,0,0,100,0.00,40.00,0,-999,0,0.00
2013-2-13,-200.0,0.0,200.0,99.9,99.9,99.9,0,0,100,0.00,40.00,0,-999,0,0.00
2013-2-14,-200.0,0.0,200.0,99.9,99.9,99.9,0,0,100,0.00,40.00,0,-999,0,0.00
2013-2-15,-200.0,0.0,200.0,99.9,99.9,99.9,0,0,100,0.00,40.00,0,-999,0,0.00
2013-2-16,-200.0,0.0,200.0,99.9,99.9,99.9,0,0,100,0.00,40.00,0,-999,0,0.00
2013-2-17,-200.0,0.0,200.0,99.9,99.9,99.9,0,0,100,0.00,40.00,0,-999,0,0.00
2013-2-18,-200.0,0.0,200.0,99.9,99.9,99.9,0,0,100,0.00,40.00,0,-999,0,0.00
2013-2-19,37.9,18.1,27.8,99.9,62.2,19.3,93,45,71,29.73,0.00,25,-461,30,0.04
2013-2-20,27.8,23.1,20.6,46.1,19.8,14.6,91,73,69,30.01,29.73,31,13,31,0.04
2013-2-21,20.9,17.3,14.7,41.8,24.1,11.8,92,56,82,30.41,29.96,27,8,29,0.00
2013-2-22,35.4,27.1,13.6,46.8,24.4,11.0,92,69,62,30.41,30.05,21,2,21,0.00
2013-2-23,38.2,35.6,32.0,36.1,32.1,26.4,95,87,75,30.06,29.85,25,8,27,0.01
2013-2-24,32.1,30.7,29.2,29.9,26.5,24.5,92,85,77,30.02,29.83,18,6,19,0.01
2013-2-25,37.5,32.1,25.8,29.7,28.1,23.3,92,85,69,30.24,30.01,15,3,16,0.02
2013-2-26,42.1,34.1,25.0,31.4,26.7,22.3,92,75,55,30.24,29.86,7,1,9,0.15
2013-2-27,40.7,35.9,33.0,37.3,33.4,30.8,95,91,81,29.89,29.53,15,3,18,0.50
2013-2-28,37.7,34.7,32.6,34.2,32.6,31.3,96,92,84,29.66,29.53,13,1,13,0.01
2013-3-1,32.6,30.0,24.8,49.0,29.8,23.9,96,87,89,29.88,29.66,18,4,20,0.02
2013-3-2,25.9,24.2,22.1,49.0,27.2,19.8,93,72,88,29.89,29.83,16,5,18,0.02
2013-3-3,24.6,22.4,20.0,43.3,20.3,17.4,92,84,81,29.87,29.81,19,6,19,0.00
2013-3-4,28.5,25.1,21.0,45.9,23.9,19.4,95,76,77,30.01,29.85,21,10,22,0.00
2013-3-5,32.5,26.7,23.2,25.2,22.9,20.0,90,85,73,30.09,29.98,13,3,15,0.02
2013-3-6,40.1,34.3,25.4,31.0,27.5,22.1,89,76,63,30.11,29.96,10,0,11,0.02
2013-3-7,38.6,33.5,27.6,63.8,50.6,22.8,90,20,68,30.22,30.10,14,2,14,0.02
2013-3-8,38.1,30.7,26.4,28.0,25.5,22.8,100,82,62,30.38,30.20,7,1,8,0.11
2013-3-9,44.1,32.0,24.2,34.4,27.9,22.5,96,85,54,30.41,30.26,6,1,7,0.11
2013-3-10,55.1,47.2,34.7,31.1,26.0,22.3,78,45,31,30.26,30.02,23,6,28,0.00
2013-3-11,51.9,48.9,45.2,42.8,32.2,25.6,79,53,39,30.04,29.72,36,16,37,0.00
2013-3-12,50.1,40.8,35.4,46.1,37.5,30.2,95,88,77,29.89,29.69,32,7,32,0.13
2013-3-13,35.5,33.0,26.3,30.9,26.5,19.0,93,77,64,29.90,29.80,29,9,30,0.01
2013-3-14,31.1,25.3,19.5,21.2,17.0,13.5,89,72,50,30.01,29.89,31,14,33,0.01
2013-3-15,35.8,30.7,25.3,31.0,24.3,16.8,92,77,64,30.02,29.70,24,7,24,0.00
2013-3-16,31.1,25.4,21.1,24.1,17.9,14.1,79,73,63,29.97,29.81,16,3,20,0.00
2013-3-17,30.1,24.3,18.4,21.0,16.9,12.5,91,73,60,30.34,29.96,14,4,16,0.00
2013-3-18,34.6,25.9,17.2,27.1,15.8,6.4,92,67,38,30.35,29.83,28,8,35,0.00
2013-3-19,39.3,32.8,27.0,33.6,28.3,20.3,93,84,68,29.84,29.65,30,10,32,0.06
2013-3-20,32.1,27.9,24.2,26.0,21.4,17.2,89,77,57,29.82,29.78,25,10,27,0.06
2013-3-21,29.7,26.0,22.2,24.7,19.1,14.7,92,75,56,29.82,29.70,18,9,23,0.00
2013-3-22,30.6,28.1,25.4,27.1,25.1,23.1,99,88,82,29.88,29.70,24,10,27,0.00
2013-3-23,35.0,31.7,28.9,27.7,26.2,23.3,92,81,67,29.97,29.85,22,9,25,0.00
2013-3-24,39.6,32.7,28.0,27.5,24.8,21.6,88,74,52,29.96,29.72,11,2,13,0.00
2013-3-25,42.5,35.2,29.0,29.1,26.4,23.8,83,71,50,29.72,29.55,10,0,12,0.00
2013-3-26,43.2,35.4,30.5,69.0,36.0,25.1,93,66,51,29.90,29.66,15,2,18,0.01
2013-3-27,42.7,35.8,32.4,34.3,30.8,27.3,100,82,63,30.02,29.88,19,6,19,0.05
2013-3-28,41.7,36.7,32.9,36.0,32.4,30.0,95,85,69,30.17,30.00,12,3,13,0.05
2013-3-29,44.6,37.5,30.5,35.6,32.2,27.4,91,81,60,30.18,30.10,0,0,0,0.00
2013-3-30,49.3,37.7,29.4,32.4,28.1,24.8,89,70,40,30.19,30.07,0,0,0,0.00
2013-3-31,48.9,41.9,31.4,40.4,32.1,22.7,95,70,47,30.07,29.63,0,0,0,0.20
2013-4-1,43.2,36.1,27.6,40.5,30.6,20.2,93,81,57,29.91,29.56,0,0,1,0.01
2013-4-2,32.0,28.1,24.6,26.8,22.4,18.5,90,79,68,30.08,29.90,0,0,0,0.01
2013-4-3,34.6,29.8,26.1,25.0,21.8,18.4,89,72,54,30.35,30.06,0,0,0,0.00
2013-4-4,49.0,36.8,27.4,31.6,24.0,18.4,78,61,41,30.35,29.92,0,0,0,0.00
2013-4-5,42.4,38.0,31.6,31.7,26.0,18.9,77,62,42,30.09,29.86,0,0,0,0.00
2013-4-6,44.2,34.4,23.5,30.1,19.3,12.9,83,57,30,30.33,30.09,5,0,7,0.00
2013-4-7,57.7,48.4,42.6,43.7,31.3,17.5,76,52,34,30.11,29.75,0,0,1,0.01
2013-4-8,61.2,47.0,38.9,48.0,37.3,33.9,85,70,43,30.11,29.80,26,1,26,0.01
2013-4-9,61.1,51.0,43.6,48.8,43.7,39.6,95,77,58,30.08,29.78,23,6,26,0.48
2013-4-10,48.6,45.6,41.1,47.4,44.5,40.3,98,96,93,30.03,29.79,18,1,19,0.51
2013-4-11,41.0,36.5,33.7,40.2,34.4,29.7,97,92,80,30.12,29.92,0,0,2,0.09
2013-4-12,46.0,40.7,34.9,43.2,38.3,33.1,95,91,85,29.97,29.59,0,0,0,0.12
2013-4-13,44.2,40.6,38.0,37.9,35.6,33.3,90,82,69,29.93,29.77,0,0,0,0.05
2013-4-14,46.0,38.5,33.1,35.4,31.1,27.5,94,76,53,30.20,29.92,1,0,1,0.07
2013-4-15,61.7,48.3,32.8,45.9,37.2,28.0,87,66,55,30.20,30.08,21,2,24,0.00
2013-4-16,54.5,50.1,42.7,50.6,45.7,35.4,96,85,72,30.21,29.95,32,12,34,0.25
2013-4-17,54.7,43.7,33.8,38.6,35.4,31.7,93,74,45,30.33,30.20,4,0,5,0.25
2013-4-18,61.9,53.8,38.4,53.6,43.4,34.6,88,69,51,30.25,29.81,40,8,45,0.00
2013-4-19,65.8,54.5,41.5,57.8,49.1,35.5,92,82,66,29.81,29.39,37,16,40,0.40
2013-4-20,41.6,39.1,32.5,35.4,29.9,24.1,87,70,56,30.37,29.73,10,0,13,0.40
2013-4-21,44.8,35.6,28.3,29.5,24.7,20.1,92,66,43,30.65,30.37,13,0,13,0.00
2013-4-22,56.2,44.2,30.4,31.1,25.7,22.6,79,50,29,30.62,30.39,23,4,26,0.00
2013-4-23,57.6,47.1,37.4,41.6,32.6,23.4,77,58,38,30.39,30.01,21,9,23,0.00
2013-4-24,61.9,50.9,40.7,51.9,43.7,36.5,90,77,63,30.01,29.63,36,13,40,0.07
2013-4-25,55.6,44.1,36.8,39.7,32.4,26.7,92,66,35,30.30,29.94,28,3,28,0.01
2013-4-26,52.5,43.2,36.3,38.3,35.0,30.6,95,74,46,30.45,30.30,12,1,13,0.08
2013-4-27,64.0,48.7,34.6,40.9,34.1,30.1,87,61,33,30.44,30.24,8,1,8,0.01
2013-4-28,67.8,53.2,42.8,45.2,38.8,33.1,84,61,30,30.25,30.04,13,0,19,0.04
2013-4-29,55.7,52.5,49.8,49.6,45.7,39.6,89,78,63,30.11,30.01,22,0,25,0.02
2013-4-30,62.7,55.2,47.9,51.6,48.7,44.1,91,79,64,30.23,30.08,11,0,13,0.02
2013-5-1,69.2,57.1,47.0,47.5,40.0,30.3,90,55,26,30.37,30.23,8,0,8,0.00
2013-5-2,74.7,59.0,48.2,50.6,41.3,33.3,83,53,27,30.42,30.25,15,4,18,0.00
2013-5-3,68.8,57.5,48.6,49.1,44.5,32.8,89,63,34,30.32,30.21,21,5,21,0.00
2013-5-4,70.5,58.4,46.9,49.3,41.5,32.4,81,54,34,30.29,30.12,16,4,19,0.00
2013-5-5,75.2,61.0,49.7,49.3,42.7,32.2,85,55,22,30.20,30.05,16,5,16,0.00
2013-5-6,73.9,58.9,50.9,49.1,40.0,26.5,83,53,20,30.16,30.00,13,5,15,0.00
2013-5-7,74.5,62.7,51.6,56.4,51.0,47.6,92,68,40,30.11,29.97,14,4,16,0.00
2013-5-8,66.0,60.8,54.9,59.9,55.3,49.1,97,83,63,30.04,29.89,15,3,16,0.07
2013-5-9,66.1,57.5,51.7,57.2,52.7,50.1,95,85,63,29.94,29.86,20,5,20,0.03
2013-5-10,68.9,58.3,50.1,58.1,52.9,49.1,98,84,59,29.95,29.73,24,6,25,0.40
2013-5-11,59.1,55.6,49.8,56.8,52.1,47.5,96,88,76,29.74,29.65,22,7,24,0.64
2013-5-12,51.6,46.5,39.1,47.8,37.2,29.7,92,71,47,29.90,29.67,38,6,38,0.06
2013-5-13,45.4,41.1,37.0,35.3,32.6,30.3,81,72,58,30.11,29.89,30,14,32,0.06
2013-5-14,54.6,43.3,32.7,36.6,30.7,24.5,93,64,35,30.15,29.99,12,3,14,0.00
2013-5-15,72.8,55.4,40.3,55.9,43.1,28.7,83,64,48,29.99,29.52,35,12,36,0.15
2013-5-16,68.8,58.9,49.4,47.1,44.0,38.8,84,59,39,29.95,29.71,31,7,33,0.15
2013-5-17,60.4,50.2,40.5,44.8,41.2,36.8,91,73,42,30.22,29.95,19,3,22,0.00
2013-5-18,67.4,54.8,41.7,50.4,44.6,39.4,92,71,42,30.26,30.15,16,4,16,0.01
2013-5-19,62.9,58.9,54.5,57.2,53.8,49.0,89,83,76,30.18,30.04,22,11,22,0.01
2013-5-20,83.4,66.3,56.9,64.2,59.2,53.6,96,80,47,30.06,29.84,19,5,20,0.00
2013-5-21,78.9,67.8,57.0,69.0,62.6,54.3,97,84,62,29.89,29.71,38,4,41,0.46
2013-5-22,83.0,68.7,56.4,69.1,62.6,55.1,99,82,55,29.80,29.65,23,6,24,0.01
2013-5-23,67.7,63.0,50.7,62.2,58.6,49.5,97,86,74,29.76,29.69,28,7,28,0.45
2013-5-24,50.7,42.6,39.0,49.8,41.0,37.3,100,94,89,30.13,29.76,29,10,29,0.07
2013-5-25,50.6,45.4,39.8,40.9,38.6,36.3,92,78,60,30.14,30.08,30,8,36,0.07
2013-5-26,55.2,47.7,40.3,41.2,38.7,34.6,93,72,47,30.18,30.04,25,8,27,0.00
2013-5-27,65.8,53.4,44.3,43.2,39.2,34.6,79,61,34,30.26,30.13,13,4,14,0.00
2013-5-28,59.5,54.5,47.6,56.7,48.5,39.1,97,81,57,30.17,29.96,19,7,22,0.56
2013-5-29,73.7,63.3,53.8,65.7,59.9,52.8,99,89,67,30.01,29.88,19,0,20,0.56
2013-5-30,83.0,65.4,52.7,68.0,59.7,51.9,100,84,51,30.11,30.01,0,0,0,0.01
2013-5-31,83.3,54.4,57.1,99.9,68.1,55.9,98,70,52,30.08,29.91,13,-255,14,0.13
2013-6-1,81.0,70.1,60.0,66.3,63.2,58.6,97,80,57,29.94,29.77,21,5,22,0.13
2013-6-2,75.5,68.4,61.1,65.9,61.7,56.5,98,80,59,29.82,29.68,24,8,27,0.06
2013-6-3,63.0,54.1,47.9,88.8,48.4,43.1,92,78,61,29.99,29.81,25,7,25,0.06
2013-6-4,60.7,52.9,46.3,45.6,42.7,36.6,91,70,43,30.15,29.99,22,7,25,0.00
2013-6-5,68.5,57.4,47.5,51.8,45.3,41.3,81,66,41,30.21,30.06,9,2,12,0.00
2013-6-6,61.3,56.5,54.1,56.0,51.8,47.0,94,85,67,30.07,29.85,21,6,23,1.80
2013-6-7,63.4,60.9,57.2,59.8,57.9,55.8,97,90,86,29.86,29.75,20,6,20,1.83
2013-6-8,61.1,57.2,55.0,57.6,55.8,54.2,98,96,86,30.07,29.74,20,4,22,0.01
2013-6-9,73.0,61.6,53.6,60.1,55.1,52.4,97,81,53,30.18,30.07,11,2,13,0.01
2013-6-10,67.2,62.7,56.7,61.7,58.6,54.5,94,87,67,30.13,29.72,30,7,34,0.65
2013-6-11,63.9,61.9,57.8,61.9,59.4,54.8,96,92,85,29.78,29.61,29,12,30,0.23
2013-6-12,70.6,60.0,54.4,58.7,54.6,52.8,96,84,59,29.91,29.77,14,4,18,0.23
2013-6-13,63.6,58.8,55.5,57.6,56.1,54.0,96,91,74,29.79,29.51,22,4,22,0.64
2013-6-14,66.2,58.6,53.1,58.9,55.6,52.1,99,90,75,29.94,29.72,22,6,22,0.01
2013-6-15,68.5,60.4,52.9,54.8,52.6,46.2,98,78,47,30.03,29.94,18,4,21,0.02
2013-6-16,68.2,63.7,57.7,63.3,57.6,52.2,97,81,68,29.95,29.68,21,7,21,0.11
2013-6-17,73.3,65.0,57.8,64.0,60.4,56.3,96,86,61,29.91,29.81,28,4,28,0.16
2013-6-18,67.2,59.9,53.3,58.3,54.6,49.6,98,84,56,29.99,29.86,14,3,16,0.18
2013-6-19,62.5,55.5,46.8,50.7,46.4,39.5,95,73,44,30.19,29.99,16,4,18,0.01
2013-6-20,73.5,59.7,46.1,58.9,49.7,42.8,91,71,51,30.25,30.18,14,3,14,0.01
2013-6-21,79.7,65.3,52.3,63.2,54.6,48.1,90,70,42,30.26,30.15,7,2,8,0.01
2013-6-22,79.9,72.7,64.8,67.0,63.6,57.6,83,74,57,30.16,29.99,15,7,19,0.01
2013-6-23,80.8,72.8,68.1,69.8,67.4,63.0,96,84,68,30.06,29.97,29,6,32,1.49
2013-6-24,81.9,75.3,69.2,71.9,68.0,65.2,90,79,61,30.02,29.91,18,5,21,0.02
2013-6-25,78.4,73.3,66.7,69.5,66.6,63.1,92,80,70,29.94,29.76,21,6,23,0.13
2013-6-26,77.3,71.4,66.2,69.4,66.6,64.5,95,85,71,29.80,29.75,19,4,19,0.12
2013-6-27,78.8,69.7,63.6,71.0,66.1,62.6,98,89,68,29.79,29.57,27,2,27,0.32
2013-6-28,68.8,66.0,61.6,65.7,64.1,60.4,98,94,86,29.57,29.44,15,4,15,0.07
2013-6-29,71.9,65.8,61.3,66.5,63.0,60.4,98,91,78,29.67,29.47,19,3,21,0.47
2013-6-30,77.2,68.6,61.0,68.5,64.4,60.1,98,87,69,29.89,29.67,13,3,14,0.01
2013-7-1,69.8,67.5,64.5,68.7,65.8,62.6,98,94,86,29.97,29.87,9,1,10,0.30
2013-7-2,79.3,70.8,63.8,73.1,68.5,63.4,99,93,78,30.07,29.97,12,2,12,0.03
2013-7-3,84.4,75.9,69.1,73.3,70.5,68.1,98,84,64,30.14,30.05,19,5,21,0.01
2013-7-4,81.9,76.5,72.9,73.5,71.5,69.7,92,85,71,30.14,30.06,16,5,19,0.01
2013-7-5,82.9,76.5,70.8,73.9,71.5,69.3,96,85,70,30.11,30.01,29,5,32,0.89
2013-7-6,84.5,75.1,70.8,70.8,68.5,63.6,97,81,54,30.12,30.00,14,3,14,0.93
2013-7-7,82.0,75.5,70.4,73.5,71.0,68.2,96,86,67,30.03,29.89,14,3,14,0.02
2013-7-8,80.1,74.0,69.0,71.8,68.6,66.2,95,84,67,30.03,29.94,15,5,15,0.04
2013-7-9,81.8,75.0,71.0,73.5,69.7,67.5,93,84,65,30.02,29.90,20,5,21,0.06
2013-7-10,82.6,76.0,72.9,74.8,71.3,65.9,92,86,73,29.90,29.70,22,10,22,0.14
2013-7-11,73.9,69.4,64.0,67.0,62.9,59.6,94,80,69,29.99,29.77,20,8,23,0.14
2013-7-12,75.3,68.2,61.6,64.9,61.9,58.5,97,82,58,30.15,29.99,14,2,14,0.01
2013-7-13,78.2,71.1,63.5,71.0,66.4,61.3,95,86,74,30.24,30.13,13,3,14,0.01
2013-7-14,87.3,77.4,68.7,74.6,70.6,66.4,95,81,62,30.29,30.20,11,2,12,0.01
2013-7-15,83.5,76.8,70.1,73.9,71.0,66.2,96,83,62,30.26,30.19,14,3,15,0.01
2013-7-16,84.3,76.0,68.1,73.3,69.1,64.9,93,80,62,30.25,30.17,13,3,14,0.02
2013-7-17,87.1,77.2,68.7,76.3,72.1,66.5,95,85,63,30.21,30.04,16,2,23,0.06
2013-7-18,84.8,50.4,73.7,99.9,83.0,68.4,96,57,70,30.05,30.00,38,-351,49,0.41
2013-7-19,-200.0,0.0,200.0,99.9,99.9,99.9,0,0,100,0.00,0.00,0,-999,0,0.00
2013-7-20,-200.0,0.0,200.0,99.9,99.9,99.9,0,0,100,0.00,0.00,0,-999,0,0.00
2013-7-21,75.2,37.7,64.0,99.9,79.6,58.3,89,38,61,29.97,0.00,19,-470,19,0.01
2013-7-22,78.8,70.7,61.8,70.9,65.4,59.3,94,84,74,29.98,29.76,15,3,16,0.01
2013-7-23,80.0,72.6,66.1,69.9,67.1,65.0,97,84,64,29.77,29.58,18,4,18,0.07
2013-7-24,72.9,61.7,52.3,68.2,56.3,50.3,94,83,72,30.03,29.62,28,10,28,0.04
2013-7-25,72.4,61.3,50.6,58.3,52.3,49.1,96,75,47,30.12,30.03,16,3,18,0.01
2013-7-26,74.5,64.1,54.4,62.6,57.0,51.7,96,79,56,30.09,30.00,13,3,13,0.03
2013-7-27,77.8,70.4,59.0,70.0,62.8,56.6,95,78,57,30.01,29.85,24,8,26,0.31
2013-7-28,74.7,68.5,60.3,67.6,64.5,58.6,95,87,69,29.97,29.82,34,7,39,0.18
2013-7-29,68.3,63.7,59.5,59.8,58.0,52.3,96,83,60,30.12,29.96,25,5,25,0.01
2013-7-30,71.2,65.0,59.5,62.6,59.3,56.8,92,82,67,30.19,30.12,15,6,20,0.01
2013-7-31,76.2,67.7,58.1,62.1,59.1,56.3,96,76,53,30.15,29.94,8,1,9,0.01
2013-8-1,74.3,68.6,61.9,67.5,63.7,60.0,95,85,71,29.94,29.75,29,8,34,0.39
2013-8-2,72.5,66.4,61.0,62.7,60.9,57.9,97,83,62,29.89,29.82,20,3,22,0.03
2013-8-3,72.2,67.1,63.0,62.3,59.9,53.4,94,79,54,29.90,29.78,24,9,25,0.15
2013-8-4,67.0,63.5,59.6,60.9,57.8,54.4,96,82,67,30.01,29.88,28,11,30,0.01
2013-8-5,70.0,61.3,52.1,57.3,53.4,49.3,95,77,54,30.10,30.00,16,4,16,0.01
2013-8-6,73.5,66.3,55.7,62.7,56.5,52.4,92,72,52,30.06,30.01,16,6,16,0.00
2013-8-7,72.4,69.0,64.7,67.5,63.7,59.5,88,84,78,30.04,29.91,28,14,29,0.00
2013-8-8,80.8,72.6,68.9,72.7,68.0,64.7,96,86,72,29.96,29.88,19,5,20,0.02
2013-8-9,72.9,70.3,67.1,70.4,68.2,62.4,96,93,84,29.90,29.80,21,4,22,0.03
2013-8-10,68.8,65.3,56.2,62.8,58.2,50.0,91,78,59,30.08,29.89,23,9,24,0.03
2013-8-11,72.0,63.4,55.4,60.5,55.0,51.4,91,76,57,30.12,30.02,12,3,14,0.00
2013-8-12,74.0,67.6,60.1,65.3,60.1,56.5,90,78,60,30.05,29.86,10,2,14,0.00
2013-8-13,71.0,66.1,59.4,65.5,61.7,52.1,96,86,76,29.86,29.71,27,8,29,0.38
2013-8-14,64.7,59.9,55.3,57.2,53.5,50.5,94,80,66,30.05,29.80,32,13,33,0.04
2013-8-15,70.2,62.0,54.9,58.8,54.3,50.8,91,77,57,30.14,30.05,21,6,21,0.01
2013-8-16,72.3,63.0,55.9,58.3,54.1,49.2,91,75,51,30.21,30.11,13,3,16,0.01
2013-8-17,75.6,64.9,54.8,63.9,57.0,51.6,91,77,56,30.30,30.21,9,2,9,0.00
2013-8-18,76.7,67.3,60.1,64.9,59.7,56.2,92,78,55,30.25,30.10,8,2,9,0.00
2013-8-19,76.5,68.9,62.2,66.3,61.4,58.8,92,78,60,30.10,30.00,9,2,10,0.00
2013-8-20,78.5,68.1,60.5,66.3,61.4,58.4,94,81,57,30.12,30.04,12,2,14,0.00
2013-8-21,80.5,71.2,61.5,70.1,63.2,59.1,93,77,54,30.16,30.00,9,2,9,0.00
2013-8-22,80.4,72.2,66.3,69.9,66.1,61.6,97,82,63,30.02,29.84,31,4,38,0.17
2013-8-23,69.4,64.0,56.9,65.9,58.9,55.1,98,84,65,30.19,29.93,18,4,18,0.01
2013-8-24,72.3,62.2,53.2,58.2,54.3,50.3,97,78,50,30.34,30.18,13,3,14,0.02
2013-8-25,77.3,67.3,54.5,66.8,58.3,52.0,92,74,51,30.35,30.13,14,4,15,0.02
2013-8-26,73.5,70.2,64.9,69.1,65.4,61.6,97,85,74,30.16,29.90,14,6,22,1.09
2013-8-27,80.5,70.9,64.7,72.3,68.2,63.8,98,92,72,29.93,29.85,6,1,7,0.02
2013-8-28,82.5,72.2,66.5,72.5,68.9,65.6,98,90,66,29.90,29.82,13,1,13,0.01
2013-8-29,78.7,69.6,63.3,71.6,66.6,61.8,99,91,71,30.01,29.90,14,3,15,0.01
2013-8-30,80.4,71.0,62.5,70.7,65.1,61.3,97,83,58,30.01,29.76,10,2,12,0.04
2013-8-31,78.8,73.9,68.0,72.8,69.7,66.0,95,87,76,29.82,29.71,21,5,27,0.01
2013-9-1,79.9,72.3,66.7,72.9,68.3,65.2,97,88,69,29.83,29.72,24,1,26,0.87
2013-9-2,79.7,71.1,67.3,73.4,67.8,63.8,96,90,74,29.77,29.61,24,7,25,0.55
2013-9-3,67.2,64.5,63.1,63.9,59.1,56.3,90,83,73,29.90,29.74,24,10,25,0.55
2013-9-4,74.5,67.1,59.8,61.0,57.7,54.2,88,73,52,29.98,29.90,24,10,29,0.00
2013-9-5,68.1,60.4,50.1,62.6,51.2,45.1,93,72,54,30.20,29.92,26,8,26,0.01
2013-9-6,65.7,56.3,47.7,52.6,47.2,41.9,95,74,48,30.28,30.10,10,2,11,0.01
2013-9-7,67.0,62.3,57.8,60.0,54.1,48.1,93,75,58,30.10,29.86,14,5,15,0.22
2013-9-8,63.7,58.9,48.9,62.8,52.6,44.4,97,81,54,30.11,29.82,21,5,27,0.04
2013-9-9,71.2,60.1,47.8,60.5,51.4,43.8,93,74,54,30.18,30.00,23,9,26,0.04
2013-9-10,81.5,73.2,65.9,74.6,68.0,58.6,96,84,76,30.07,29.93,25,11,28,1.10
2013-9-11,85.9,77.3,70.1,74.0,71.3,66.3,90,82,64,30.03,29.89,26,8,28,0.25
2013-9-12,74.8,70.0,63.6,68.7,66.2,61.1,95,88,79,29.89,29.69,20,6,21,0.26
2013-9-13,63.6,55.7,48.7,61.5,54.3,47.5,97,95,92,29.97,29.68,20,6,23,0.33
2013-9-14,56.6,51.3,46.9,50.0,47.7,45.3,100,88,68,30.14,29.96,21,7,22,0.34
2013-9-15,63.8,57.3,48.4,55.7,49.9,44.6,95,78,53,30.17,30.04,23,6,27,0.01
2013-9-16,58.7,52.1,43.0,54.8,49.0,39.3,96,90,77,30.36,30.05,21,5,24,0.01
2013-9-17,62.9,49.4,39.1,49.2,42.5,37.5,96,79,53,30.49,30.32,11,2,11,0.01
2013-9-18,69.2,60.5,47.2,55.3,48.3,44.1,93,66,45,30.32,30.12,14,5,15,0.01
2013-9-19,76.5,63.5,56.1,60.8,52.4,47.3,83,68,46,30.13,30.01,14,4,14,0.00
2013-9-20,75.5,67.3,59.9,63.3,58.8,51.9,89,75,60,30.02,29.82,28,9,31,0.00
2013-9-21,68.0,63.8,58.6,62.2,59.6,57.0,96,87,73,29.82,29.58,34,15,36,1.13
2013-9-22,59.0,52.9,50.3,56.8,48.2,43.8,94,84,72,29.98,29.66,28,14,31,0.03
2013-9-23,53.8,48.5,43.4,46.4,43.7,41.7,95,84,69,30.12,29.98,23,4,23,0.03
2013-9-24,59.4,49.9,42.1,49.5,45.2,40.9,98,85,61,30.12,30.00,19,5,21,0.01
2013-9-25,65.5,53.4,45.1,54.3,48.3,43.4,96,84,60,30.01,29.92,15,3,16,0.02
2013-9-26,66.5,55.3,46.8,55.3,50.6,45.6,97,85,62,30.13,29.99,13,3,15,0.01
2013-9-27,66.8,55.8,48.5,56.4,51.6,47.3,100,87,66,30.26,30.12,12,2,13,0.02
2013-9-28,68.5,58.1,49.0,57.0,51.8,46.6,95,80,59,30.31,30.20,15,4,16,0.01
2013-9-29,68.3,61.6,54.7,55.7,52.0,49.1,83,71,56,30.20,30.02,22,9,24,0.01
2013-9-30,75.3,62.8,57.3,63.1,54.0,49.9,90,74,47,30.03,29.93,12,3,13,0.00
2013-10-1,71.0,62.1,55.9,60.9,57.3,53.1,93,85,63,30.01,29.91,13,1,14,0.00
2013-10-2,72.2,64.5,56.2,62.9,58.0,50.8,90,80,64,30.05,29.91,25,5,25,0.00
2013-10-3,69.4,59.5,51.8,56.1,52.2,45.3,96,79,42,30.13,30.02,7,1,7,0.01
2013-10-4,69.7,64.6,59.7,66.5,62.5,54.5,98,93,83,30.04,29.97,9,1,9,0.58
2013-10-5,63.6,61.6,59.3,62.1,60.8,58.6,98,97,94,30.07,30.01,12,2,13,0.12
2013-10-6,76.7,67.7,61.4,68.8,64.6,60.8,98,90,73,30.02,29.80,30,7,30,0.85
2013-10-7,71.3,63.0,54.4,64.7,56.9,45.1,95,81,59,30.00,29.60,33,14,38,1.38
2013-10-8,61.1,53.1,47.4,49.5,47.4,44.8,95,82,59,30.36,30.00,22,4,23,1.38
2013-10-9,65.8,53.0,43.4,49.6,45.0,41.2,94,77,47,30.42,30.29,10,2,10,0.01
2013-10-10,62.9,53.1,44.3,50.4,46.1,41.8,92,78,60,30.29,30.15,11,2,12,0.01
2013-10-11,66.3,54.9,49.2,52.7,48.3,45.4,94,79,52,30.15,30.09,10,1,10,0.03
2013-10-12,76.0,58.2,44.6,56.7,48.1,38.3,93,73,30,30.23,30.11,19,2,20,0.03
2013-10-13,67.9,61.7,55.4,58.7,53.2,49.8,84,74,63,30.29,30.22,22,9,26,0.00
2013-10-14,64.3,56.6,50.8,54.4,53.1,49.6,97,89,64,30.30,30.25,16,6,18,0.09
2013-10-15,66.3,57.8,49.3,57.5,53.2,48.4,98,85,68,30.28,29.99,18,2,19,0.01
2013-10-16,63.5,60.8,58.2,56.9,52.5,45.5,94,75,60,30.00,29.78,25,14,27,0.26
2013-10-17,61.8,57.0,51.6,56.5,50.6,47.1,96,80,62,29.87,29.63,15,5,16,0.67
2013-10-18,56.2,53.8,50.3,52.1,46.8,39.8,96,78,58,29.91,29.65,30,11,35,0.03
2013-10-19,59.9,55.1,48.4,50.4,46.1,42.3,91,72,55,29.90,29.63,33,14,35,0.34
2013-10-20,51.9,48.8,45.2,44.6,42.2,39.9,86,78,69,29.99,29.72,22,10,26,0.34
2013-10-21,62.8,56.4,48.5,47.3,43.5,40.6,80,63,46,30.01,29.79,29,16,30,0.00
2013-10-22,57.4,49.4,44.2,48.4,39.9,33.4,89,70,55,29.84,29.72,29,12,31,0.09
2013-10-23,47.2,43.5,39.3,40.6,37.4,33.7,93,80,64,29.82,29.64,26,7,29,0.07
2013-10-24,47.3,42.1,38.1,38.7,35.6,30.4,93,79,54,29.97,29.76,31,14,32,0.02
2013-10-25,46.2,42.0,38.6,39.8,37.6,35.1,94,85,71,30.17,29.97,28,11,32,0.01
2013-10-26,48.0,44.5,41.8,38.2,35.0,30.2,84,70,54,30.14,29.81,35,16,37,0.03
2013-10-27,46.9,44.2,40.9,39.2,36.8,34.1,89,76,63,30.07,29.80,24,11,24,0.03
2013-10-28,48.4,43.2,32.4,42.4,35.2,25.6,85,74,56,30.37,30.04,27,9,28,0.00
2013-10-29,45.1,36.3,27.6,32.6,25.5,21.9,89,66,45,30.48,30.31,10,3,11,0.00
2013-10-30,55.5,45.5,39.5,41.6,38.0,28.6,92,76,56,30.31,30.13,11,2,11,0.01
2013-10-31,60.4,55.8,43.3,56.9,51.8,39.0,93,87,73,30.13,29.49,37,17,38,1.03
2013-11-1,62.9,59.1,53.0,57.9,50.0,41.9,91,73,51,29.66,29.23,38,19,42,0.14
2013-11-2,53.0,46.9,36.3,45.9,42.9,33.3,94,86,71,29.93,29.61,21,6,21,0.16
2013-11-3,36.3,32.8,27.5,33.2,26.3,21.7,89,77,62,30.54,29.93,22,3,24,0.16
2013-11-4,42.2,34.7,26.6,27.1,21.8,16.8,86,61,37,30.67,30.51,26,4,26,0.01
2013-11-5,52.6,46.1,39.2,42.0,33.9,23.0,75,63,52,30.53,30.35,34,18,36,0.01
2013-11-6,58.2,53.7,48.4,51.1,46.5,40.8,84,77,71,30.37,29.83,38,20,41,0.03
2013-11-7,57.2,45.5,38.3,52.1,41.0,32.3,94,84,73,29.95,29.76,31,15,33,0.39
2013-11-8,39.9,38.0,35.0,35.1,32.6,29.6,95,81,68,30.20,29.92,36,15,37,0.03
2013-11-9,48.1,42.3,37.7,36.6,32.7,29.3,82,69,53,30.21,29.80,30,14,30,0.01
2013-11-10,48.9,43.9,36.3,41.7,37.1,34.0,95,77,58,30.10,29.77,42,18,47,0.19
2013-11-11,45.6,40.1,32.5,37.7,34.1,30.6,94,80,61,30.15,29.93,33,14,34,0.03
2013-11-12,32.6,29.3,26.3,30.8,25.9,22.5,95,87,73,30.34,30.05,29,16,31,0.03
2013-11-13,36.3,30.5,23.3,27.5,23.1,18.4,90,74,61,30.42,30.11,27,12,27,0.00
2013-11-14,50.4,42.4,35.2,30.8,23.7,18.6,64,48,33,30.14,30.03,24,12,27,0.00
2013-11-15,53.9,47.2,41.2,36.7,27.5,21.8,56,46,36,30.14,30.06,19,9,21,0.00
2013-11-16,57.6,50.8,44.7,43.2,37.1,25.5,75,60,39,30.26,30.10,22,9,24,0.00
2013-11-17,57.7,53.8,49.6,53.9,49.4,42.1,90,85,72,30.11,29.41,46,20,46,0.35
2013-11-18,57.6,48.7,37.7,54.5,39.2,29.1,92,70,56,29.84,29.38,42,20,42,0.03
2013-11-19,37.9,35.0,29.3,33.3,29.5,21.3,93,80,71,30.43,29.84,36,17,36,0.01
2013-11-20,38.3,30.0,21.2,23.5,20.0,15.7,88,67,44,30.60,30.42,16,3,16,0.01
2013-11-21,44.4,39.3,33.5,37.5,27.8,15.0,81,64,44,30.54,30.28,29,15,32,0.00
2013-11-22,47.6,43.4,35.9,45.8,41.1,31.3,95,92,82,30.29,29.94,39,11,41,0.18
2013-11-23,36.9,30.2,20.0,32.3,25.8,15.4,95,84,61,30.13,29.92,45,20,45,0.18
2013-11-24,23.7,20.2,17.7,20.4,18.3,15.9,100,92,81,30.38,30.07,35,18,37,0.00
2013-11-25,34.2,27.4,19.9,23.9,20.0,16.2,94,75,50,30.40,30.15,32,15,32,0.00
2013-11-26,38.3,33.6,30.4,36.8,29.7,17.7,95,86,53,30.19,29.79,25,11,26,0.74
2013-11-27,35.4,32.2,24.4,34.3,30.5,21.3,97,94,82,29.81,29.53,37,16,40,0.08
2013-11-28,26.4,23.8,20.6,22.6,19.8,16.8,94,85,71,30.43,29.81,34,12,35,0.08
2013-11-29,27.9,23.5,13.6,23.1,19.5,11.0,94,85,65,30.75,30.43,24,7,27,0.00
2013-11-30,34.1,25.3,12.7,26.7,17.9,10.4,92,74,56,30.75,30.25,36,14,40,0.06
2013-12-1,39.7,35.3,32.6,34.1,29.3,25.4,93,79,66,30.25,29.97,25,11,27,0.04
2013-12-2,40.8,37.6,35.7,35.2,33.8,32.8,91,86,78,29.98,29.85,12,5,13,0.04
2013-12-3,39.5,34.2,28.8,34.4,30.0,26.1,93,85,64,30.01,29.87,12,3,13,0.00
2013-12-4,49.7,41.2,31.2,42.8,36.7,28.3,95,84,70,30.07,29.97,20,5,23,0.01
2013-12-5,54.4,49.7,39.9,51.6,46.3,37.9,94,88,75,29.98,29.78,33,15,33,0.11
2013-12-6,39.8,34.4,29.7,37.9,30.9,27.1,100,87,78,30.23,29.96,20,10,23,0.02
2013-12-7,30.6,28.9,24.7,48.3,23.1,17.3,93,77,63,30.53,30.21,25,14,27,0.02
2013-12-8,29.1,25.7,21.9,48.1,23.3,15.0,87,58,62,30.58,30.28,20,5,20,0.00
2013-12-9,40.5,35.1,26.3,38.2,30.7,22.1,92,84,71,30.28,29.86,42,17,42,0.04
2013-12-10,35.0,27.6,22.6,27.2,21.2,14.0,90,76,69,30.05,29.89,31,14,35,0.04
2013-12-11,25.0,23.1,19.2,22.4,18.4,13.3,93,82,68,30.24,30.05,28,13,31,0.00
2013-12-12,21.9,18.4,14.8,16.4,13.9,11.9,93,83,71,30.32,30.04,27,12,27,0.00
2013-12-13,25.2,19.9,11.9,22.2,16.7,8.7,93,87,78,30.39,30.02,30,12,31,0.00
2013-12-14,27.1,15.9,9.0,24.1,12.6,3.3,93,86,74,30.47,29.78,27,7,30,0.00
2013-12-15,29.0,23.9,18.2,25.7,21.4,14.3,100,90,70,29.82,29.61,27,10,29,0.00
2013-12-16,23.0,16.0,5.0,28.6,15.2,4.5,92,77,69,30.20,29.82,32,10,33,0.00
2013-12-17,28.7,21.3,6.2,24.8,18.2,3.7,92,88,82,30.18,29.93,29,9,29,0.00
2013-12-18,30.9,28.7,26.0,26.8,25.0,22.7,93,86,76,30.08,29.93,28,10,28,0.02
2013-12-19,41.1,35.5,29.9,33.1,27.4,21.2,84,72,62,30.06,29.93,27,10,27,0.09
2013-12-20,47.9,44.8,37.6,45.0,39.0,32.1,94,81,64,30.00,29.79,21,12,23,0.20
2013-12-21,53.7,46.9,33.0,50.9,44.9,31.9,97,93,86,29.84,29.77,26,9,28,0.78
2013-12-22,60.4,41.6,32.4,52.9,39.5,31.6,99,93,64,29.98,29.55,40,8,42,0.06
2013-12-23,41.9,37.0,28.2,40.4,34.3,25.8,98,90,72,30.23,29.96,28,9,32,0.04
2013-12-24,28.5,21.5,14.3,26.7,19.1,12.2,93,90,83,30.45,30.17,31,8,31,0.04
2013-12-25,26.7,16.1,6.0,34.1,16.4,5.8,100,64,67,30.54,30.27,29,8,30,0.00
2013-12-26,31.9,27.7,23.1,28.9,23.3,17.5,94,83,71,30.28,30.07,27,16,30,0.00
2013-12-27,33.9,28.9,24.3,28.9,24.6,17.9,89,84,75,30.28,30.14,24,10,24,0.00
2013-12-28,44.3,38.9,32.8,34.8,31.3,28.1,96,74,63,30.13,29.95,23,9,24,0.01
2013-12-29,45.1,40.5,35.9,38.2,33.6,29.3,100,78,56,29.95,29.62,25,9,27,0.46
2013-12-30,38.2,21.3,15.7,34.0,17.7,10.5,94,86,75,30.20,29.68,36,16,36,0.46
2013-12-31,25.2,19.1,15.2,21.7,14.0,8.4,92,80,69,30.24,29.96,39,15,39,0.00
2014-1-1,21.5,17.7,13.2,15.4,11.6,9.4,95,77,61,30.39,30.24,23,9,25,0.00
2014-1-2,13.5,9.8,-0.7,99.9,9.9,-2.6,89,88,86,30.29,29.93,15,4,18,0.00